GFSNIL_sfc_dewp_000.txt.gz
Dewpoint
26 33 32 30 31 31 32 32 34 33 34 32 32 33 34 35 35 35 39 42 44 42
21 24 30 29 29 31 31 33 32 33 33 33 33 34 34 35 34 40 43 43 42 43
22 23 25 28 29 29 31 32 33 33 33 33 33 33 32 34 38 41 42 40 42 44
23 24 23 24 27 28 31 30 31 31 32 32 32 31 32 35 38 38 39 40 42 43
23 24 24 24 24 27 27 29 30 30 30 30 32 32 33 35 36 38 39 41 43 43
24 24 25 26 26 26 26 27 28 28 30 30 32 33 34 35 37 38 40 43 42 46
24 24 27 27 27 27 27 27 26 28 29 32 32 34 35 37 39 40 41 43 44 44
24 26 26 26 28 28 28 27 28 28 29 31 31 30 34 38 40 40 41 42 41 45
26 24 26 28 28 27 28 29 29 29 30 30 30 38 42 40 39 40 41 42 41 45
22 24 26 27 27 28 29 29 29 30 30 30 30 38 39 42 37 40 41 42 42 45
21 23 26 26 28 28 28 29 30 30 30 31 32 38 39 39 36 40 42 42 44 46
22 24 27 28 29 30 30 29 29 30 31 31 31 38 39 38 37 40 41 42 45 46
24 26 28 29 29 30 30 28 29 30 31 35 31 38 39 40 36 38 40 42 43 46
26 27 28 29 30 29 28 29 31 31 31 31 32 33 39 40 35 37 40 39 41 44

GFSNIL_sfc_dewp_003.txt.gz
Dewpoint
26 31 32 30 31 30 31 32 32 33 34 34 33 33 34 35 36 36 37 36 42 44
25 25 31 30 30 30 30 33 32 33 33 34 34 34 35 35 35 36 39 42 43 42
22 22 25 27 28 29 31 31 32 34 34 34 34 34 34 35 36 38 41 41 42 42
23 23 23 24 26 28 29 31 33 33 33 33 33 34 33 34 36 37 38 39 42 41
23 24 24 24 25 26 28 30 30 31 32 31 32 33 33 34 34 35 36 39 40 40
23 23 23 24 26 26 27 28 29 30 30 32 32 33 34 35 35 36 38 39 39 41
22 23 24 25 27 27 27 28 29 29 30 33 32 33 35 36 37 38 38 40 40 41
24 25 25 26 27 27 28 28 29 29 30 31 32 30 34 37 39 39 40 40 40 43
25 24 25 25 26 27 29 28 30 29 30 31 31 38 40 40 37 39 40 39 40 41
24 25 25 25 26 27 28 28 29 30 30 31 31 39 40 41 36 39 39 40 41 40
21 22 23 25 26 28 28 29 29 30 30 31 32 40 40 40 36 38 39 40 41 42
21 22 25 26 27 28 29 29 29 29 29 30 31 39 40 37 35 39 39 40 42 43
22 24 26 27 27 28 29 29 29 28 30 35 32 37 38 36 35 36 37 41 41 42
25 26 27 27 28 28 28 27 27 29 31 31 32 33 38 40 36 36 38 39 39 41

GFSNIL_sfc_dewp_006.txt.gz
Dewpoint
31 32 31 30 32 31 31 30 31 31 32 33 34 34 33 34 35 35 35 35 38 38
27 28 31 31 30 31 30 31 32 32 32 33 34 34 34 35 34 35 37 37 37 39
25 25 27 28 29 30 30 31 31 31 32 34 34 34 33 34 35 37 37 36 39 40
25 23 23 25 26 27 28 29 30 32 33 32 32 32 32 33 35 35 35 37 38 39
25 24 23 23 24 26 26 28 29 30 31 31 32 32 32 34 33 34 35 36 37 38
24 24 23 23 24 25 26 27 28 29 30 30 32 32 33 34 34 35 36 37 37 38
23 23 24 24 25 25 26 27 27 28 29 32 33 33 34 34 36 37 37 38 39 39
23 24 24 25 26 26 26 26 27 28 30 31 31 30 33 36 38 38 38 39 39 40
24 24 25 25 25 25 26 28 28 28 29 30 30 36 39 40 37 39 39 39 39 40
24 25 25 25 25 26 26 27 28 28 29 30 30 38 40 40 36 39 39 39 39 39
23 25 25 24 25 26 27 27 28 29 29 30 30 38 40 39 35 35 38 39 39 40
22 22 23 25 26 27 27 27 28 29 29 28 29 38 39 37 34 36 37 38 39 42
22 23 25 26 26 27 28 28 29 28 28 32 33 37 39 37 34 36 37 39 41 41
23 24 26 26 27 27 27 28 28 27 28 31 32 33 38 38 35 36 36 37 37 39

GFSNIL_sfc_dewp_009.txt.gz
Dewpoint
30 32 32 31 32 31 32 31 30 30 31 31 32 33 34 34 34 34 34 34 36 36
30 32 32 31 30 32 31 32 31 31 31 32 32 33 34 34 33 34 35 35 36 36
28 29 30 30 30 31 31 31 31 32 31 31 33 33 32 33 34 35 36 35 37 37
28 27 27 27 29 30 30 30 30 30 31 32 32 31 31 31 33 34 34 35 36 37
27 26 24 25 25 27 27 29 29 29 30 30 31 31 31 32 32 33 34 35 36 37
27 25 23 23 24 25 25 26 28 29 29 29 31 31 32 33 34 34 35 36 36 37
26 25 24 23 24 25 25 25 27 27 28 30 31 32 33 33 34 35 36 37 38 38
27 25 24 25 25 25 26 26 26 26 29 30 30 30 31 34 36 37 38 39 39 40
27 25 24 25 25 25 26 26 27 28 28 29 29 35 37 38 36 38 38 39 39 40
25 24 24 25 26 25 25 26 27 27 28 28 29 37 37 38 35 36 35 36 37 37
24 24 24 25 25 25 26 27 27 27 28 29 30 37 38 39 35 34 36 37 38 38
23 23 24 24 24 26 27 27 27 27 28 28 28 36 40 38 34 35 36 37 38 39
22 23 24 24 25 27 27 27 28 28 28 31 31 36 39 36 34 34 36 38 39 41
22 23 23 25 27 27 27 27 28 27 27 27 30 33 38 38 34 35 36 37 36 37

GFSNIL_sfc_dewp_015.txt.gz
Dewpoint
36 35 34 34 34 33 34 33 34 35 33 33 34 35 36 37 37 36 36 36 37 36
32 34 35 34 34 35 33 33 35 34 34 33 33 34 36 35 35 36 35 35 35 35
32 32 34 34 33 34 33 33 35 35 34 34 33 34 35 36 35 35 35 34 35 35
31 31 31 31 32 33 34 34 33 33 33 33 33 32 33 33 33 34 34 35 36 36
31 32 31 30 30 31 32 33 32 32 32 32 33 32 32 32 29 32 34 34 35 36
31 31 31 30 30 30 30 31 31 32 32 31 32 32 31 31 32 33 33 34 35 37
31 32 32 31 30 29 28 29 29 30 30 31 31 31 31 32 33 33 33 35 37 38
31 32 31 31 30 28 28 27 28 28 29 31 31 29 33 34 34 35 35 37 38 40
31 31 31 31 29 28 29 26 27 26 27 30 27 35 39 37 36 36 37 38 38 37
30 31 30 29 29 30 29 26 27 27 27 29 30 38 39 39 35 36 37 38 37 35
29 30 29 29 29 28 27 28 27 27 28 30 31 38 39 38 35 37 38 38 38 38
29 30 29 29 29 28 27 28 27 28 30 30 30 38 39 37 36 37 37 37 38 39
29 29 29 31 30 29 28 28 28 27 28 32 28 37 39 37 36 35 35 36 38 40
30 30 30 31 29 29 28 28 27 27 28 28 32 32 38 38 36 35 35 35 36 37